#timestamp,LO_Frequency,Hit 
1504278015.9,286047002.6,N
1504278035.7,286047002.1,N
1504278055.6,286046998.3,N
1504278075.4,286046996.9,N
1504278095.2,286046998.8,N
1504278115.1,286047000.5,N
1504278116.0,286047000.5,N
1504278135.8,286046998.1,N
1504278155.6,286046999.3,N
1504278175.5,286046995.4,N
1504278195.3,286046991.9,P
1504278215.1,286046994.5,N
1504278235.9,286046994.7,N
1504278255.7,286046995.5,N
1504278275.5,286046997.1,N
1504278295.4,286046998.1,N
1504278315.2,286046999.4,N
1504278335.0,286046995.8,N
1504278335.9,286046995.8,N
1504278355.8,286046997.7,N
1504278375.6,286046997.5,N
1504278395.4,286046995.4,N
1504278415.2,286046997.6,N
1504278435.1,286046997.4,N
1504278436.0,286046997.4,N
1504278455.8,286046997.5,N
1504278475.6,286046997.2,N
1504278495.5,286046998.8,N
1504278515.3,286046995.2,N
1504278535.1,286046998.0,N
1504278555.9,286046994.9,N
1504278575.7,286046996.7,N
1504278595.5,286046998.5,N
1504278615.4,286046996.5,N
1504278635.2,286046996.2,N
1504278655.0,286046996.7,N
1504278655.9,286046996.7,N
1504278675.8,286046995.5,N
1504278695.6,286046995.2,P
1504278715.4,286047000.7,N
1504278735.3,286047001.0,N
1504278755.1,286046998.7,N
1504278756.0,286046998.7,N
1504278775.8,286046997.1,N
1504278795.7,286046999.7,N
1504278815.5,286047001.6,N
1504278835.3,286047003.7,N
1504278855.1,286047006.9,N
1504278875.9,286047004.8,N
1504278895.7,286047001.5,N
1504278915.5,286047001.6,N
1504278935.4,286047005.1,N
1504278955.2,286047002.1,N
1504278975.0,286047000.6,N
1504278975.9,286047000.6,N
1504278995.8,286047000.2,N
1504279015.6,286046996.2,N
1504279035.4,286046995.2,N
1504279055.3,286046997.6,N
1504279075.1,286046999.4,N
1504279076.0,286046999.4,N
1504279095.8,286046998.3,N
1504279115.7,286047000.0,N
1504279135.5,286047001.6,N
1504279155.3,286047001.1,N
1504279175.1,286046997.7,N
1504279195.9,286046999.2,N
1504279215.7,286046996.3,N
1504279235.5,286046995.5,N
1504279255.4,286046995.8,N
1504279275.2,286046999.5,N
1504279295.0,286047000.0,N
1504279295.9,286047000.0,N
1504279315.8,286047000.7,N
1504279335.6,286047001.9,N
1504279355.4,286047004.4,N
1504279375.3,286047002.9,N
1504279395.1,286047002.1,N
1504279396.0,286047002.1,N
1504279415.8,286047000.9,N
1504279435.7,286047000.0,N
1504279455.5,286047004.2,N
1504279475.3,286047003.4,N
1504279495.2,286047000.0,N
1504279515.9,286047002.0,N
1504279535.7,286047000.3,N
1504279555.5,286047002.4,N
1504279575.4,286047000.7,N
1504279595.2,286047001.4,N
1504279615.0,286047002.2,N
1504279615.9,286047002.2,N
1504279635.8,286047000.0,N
1504279655.6,286046999.8,N
1504279675.4,286047000.0,N
1504279695.3,286047005.4,N
1504279715.1,286047005.3,N
1504279735.8,286047003.7,N
1504279755.7,286047000.6,N
1504279775.5,286047004.0,N
1504279795.3,286047000.3,N
1504279815.2,286047003.3,N
1504279835.9,286047000.8,N
1504279855.7,286046996.9,N
1504279875.6,286046995.4,N
1504279895.4,286046995.1,N
1504279915.2,286046999.3,N
1504279935.0,286046998.2,N
1504279936.0,286046998.2,N
1504279955.8,286047002.8,N
1504279975.6,286047001.9,N
1504279995.4,286047003.7,N
1504280015.3,286046998.6,N
1504280035.1,286046999.1,N
1504280055.8,286046998.3,N
1504280075.7,286046998.3,N
1504280095.5,286046998.4,N
1504280115.3,286046999.4,N
1504280135.2,286046999.4,N
1504280155.9,286046997.6,N
1504280175.7,286046998.1,N
1504280195.6,286046998.3,N
1504280215.4,286047002.5,N
1504280235.2,286047002.7,N
1504280255.0,286046996.8,N
1504280256.0,286046996.8,N
1504280275.8,286046999.6,N
1504280295.6,286046998.4,N
1504280315.4,286047000.9,N
1504280335.3,286047002.7,N
1504280355.1,286047004.7,N
1504280375.9,286047007.5,P
1504280395.7,286047008.8,N
1504280415.5,286047004.5,N
1504280435.3,286047005.8,N
1504280455.2,286047006.6,N
1504280475.9,286047007.2,N
1504280495.7,286047005.6,N
1504280515.6,286047004.8,N
1504280535.4,286047002.9,N
1504280555.2,286047000.4,N
1504280575.1,286047000.1,N
1504280576.0,286047000.1,N
1504280595.8,286046997.2,N
1504280615.6,286046996.3,N
1504280635.5,286046996.4,N
1504280655.3,286046997.4,N
1504280675.1,286046997.2,N
1504280695.8,286046994.7,N
1504280715.7,286046995.2,N
1504280735.5,286046991.7,N
1504280755.3,286046993.3,N
1504280775.2,286046994.5,N
1504280795.9,286046996.3,N
1504280815.7,286046995.3,N
1504280835.6,286047002.2,N
1504280855.4,286047000.5,N
1504280875.2,286047000.0,N
1504280895.1,286046999.7,N
1504280896.0,286046999.7,N
1504280915.8,286047001.4,N
1504280935.6,286047007.2,N
1504280955.4,286047000.4,N
1504280975.3,286047000.7,N
1504280995.1,286047002.6,N
1504281015.8,286047005.3,N
1504281035.7,286047001.3,N
1504281055.5,286047000.2,N
1504281075.3,286046999.4,N
1504281095.2,286046999.2,N
1504281115.9,286046995.6,N
1504281135.7,286046999.3,N
1504281155.6,286047001.0,N
1504281175.4,286047002.8,N
1504281195.2,286047001.8,N
1504281215.1,286047003.3,N
1504281216.0,286047003.3,N
1504281235.8,286046997.3,N
1504281255.6,286046998.6,N
1504281275.5,286047000.3,N
1504281295.3,286047003.6,N
1504281315.1,286047006.8,N
1504281335.8,286047008.5,N
1504281355.7,286047006.8,N
1504281375.5,286047003.5,N
1504281395.4,286047003.0,N
1504281415.2,286047001.4,N
1504281435.0,286047000.2,N
1504281435.9,286047000.2,N
1504281455.8,286046998.9,N
1504281475.6,286047002.5,N
1504281495.4,286046999.8,N
1504281515.2,286046998.5,N
1504281535.1,286046998.5,N
1504281536.0,286046998.5,N
1504281555.8,286047002.0,N
1504281575.6,286047003.9,N
1504281595.5,286047001.7,N
